sat.trackr.live / text

‹ back to catalog

UMBRA-12

NORAD 67371 · 2026-004J

PAYLOAD ACTIVE UNKNOWN

§ Identity

Operator
Country
US
Launch date
2026-01-11
Launch site
AFWTR
Launch vehicle
Mass (kg)
RCS (m²)

External: N2YO · Heavens-Above · Gunter

§ Orbital elements

Epoch: 2026-09-20T11:44:10.641984Z

Period
96.64 min
Inclination
97.8087°
Eccentricity
0.0006136
Mean motion
14.90000028 rev/d
Perigee alt
593.7 km
Apogee alt
602.2 km
Semi-major
6,976.1 km
B*
3.1886e-4
RAAN
261.0160°
Arg perigee
161.7649°
Mean anomaly
198.3790°
Rev number
3,749

§ Raw data

UMBRA-121 67371U 26004J   26263.48901206  .00003020  00000+0  31886-3 0  99982 67371  97.8087 261.0160 0006136 161.7649 198.3790 14.90000028 37495

JSON: /api/v1/satellites/67371 · /tle

For live sub-satellite position, see the globe view (requires WebGL).

§ Visibility from observer

Set your observer location to see the next 7 days of passes ≥ 10°. The values pass through the URL so the page stays shareable.

No JS? Fill the form by hand. The geolocation button needs JavaScript.